Location: Piolenc
(44.1794°N, 4.7641°E)
Time: 00:39:02
(UTC+00:00)

STARLINK-2123 - Pass Details

Date: 27 January 2021
Orbit: 379 x 380 km, 53.1° (Epoch: 27 February)

Event Time Altitude Azimuth Distance (km) Brightness Sun altitude
Exits shadow 05:47:35 10° 221° (SW) 1,366 5.4 -13.8°
Reaches altitude 10° 05:47:37 10° 221° (SW) 1,358 5.4 -13.8°
Maximum altitude 05:50:35 56° 142° (SE) 442 3.4 -13.2°
Drops below altitude 10° 05:53:33 10° 63° (ENE) 1,355 6.4 -12.7°
Sets 05:55:36 0° 59° (ENE) 2,202 7.4 -12.4°
